Theta_e
354 357 356 357 358 357 356 359 360 360 358 358 359 359 359 360 358 358 363 360 359 361 360 364 366 362 359 363 358 363 367 365 366 370 370 370 370 373 372 371 372 368 371 367 360 365 371 366 370 370 371 364 366 361 359 362 362 364 365 365 364 370 366 362 358 357 363 366 361 357 356 356 351 365 353 351 351 358 356 358 364 359 356 355 354
354 357 359 355 353 354 355 355 357 360 357 357 359 357 356 359 361 360 358 360 361 357 360 359 362 361 358 359 365 361 366 370 362 364 366 368 366 362 363 371 372 369 369 371 370 361 368 369 367 364 369 366 361 356 357 352 355 358 361 361 360 355 369 368 363 362 354 361 361 362 356 357 350 359 355 354 353 359 354 355 353 353 349 352 350
352 357 357 357 356 354 355 355 355 356 356 357 356 355 357 356 360 359 357 356 361 360 357 357 364 364 362 367 367 367 373 365 365 368 369 368 366 361 359 366 365 363 363 366 362 366 363 367 361 363 357 363 363 359 360 358 357 357 358 361 357 365 367 374 367 357 353 357 362 354 355 357 357 355 358 357 358 356 357 353 349 348 350 350 351
356 359 356 355 353 353 354 354 352 352 352 354 354 356 356 356 359 356 356 356 357 361 358 358 362 368 363 366 368 366 367 365 363 364 366 367 366 368 369 369 366 363 364 362 360 363 361 364 359 360 365 368 364 367 359 357 359 367 366 366 371 362 364 364 363 360 361 353 360 357 359 358 358 358 357 354 353 354 353 356 355 352 354 353 350
351 354 354 355 355 354 351 351 351 350 350 351 354 354 353 355 358 357 356 357 358 357 363 361 364 364 357 361 364 365 366 364 365 360 361 365 366 363 366 367 364 365 363 365 361 368 365 362 360 366 368 363 364 360 359 357 364 365 359 364 368 364 365 366 363 359 351 349 354 359 361 360 359 358 358 353 355 355 360 355 351 352 361 355 350
361 359 358 355 359 360 358 351 350 350 349 348 349 351 353 354 354 356 356 356 358 357 358 357 360 363 362 362 367 367 367 367 368 366 360 361 363 362 364 365 362 363 362 359 360 360 358 361 360 359 358 357 355 358 366 366 359 351 354 354 362 366 361 357 359 358 357 353 352 353 360 356 354 364 361 354 349 347 349 354 359 364 361 355 354
363 361 357 356 359 360 357 349 349 348 349 348 347 348 349 349 355 354 355 355 354 355 355 359 362 363 363 361 360 366 367 364 371 369 367 367 364 364 359 361 361 360 358 356 354 355 355 354 358 358 359 360 356 357 359 360 350 358 367 367 360 355 352 358 362 360 357 352 352 353 351 356 354 346 349 352 352 352 349 356 356 361 364 360 357
362 363 359 359 360 358 355 357 358 356 353 357 355 347 346 347 350 355 357 355 353 351 355 355 355 362 362 359 361 366 369 366 368 371 370 365 361 363 363 359 356 356 356 359 353 350 350 349 347 351 354 358 357 358 363 357 364 360 363 363 366 365 361 358 358 359 357 353 352 350 356 353 353 354 354 352 354 361 368 354 346 353 352 357 356
362 364 361 360 362 361 362 363 365 366 364 363 355 355 356 352 354 355 355 353 351 353 352 354 356 356 360 364 362 359 361 363 362 365 365 366 365 357 359 359 357 358 358 352 353 354 350 347 345 344 360 367 364 365 363 369 362 365 367 368 366 364 364 363 361 362 360 357 354 355 352 352 354 353 355 357 345 342 351 361 354 352 354 354 359
364 364 363 362 365 364 365 366 365 368 368 361 367 363 356 361 351 350 352 351 356 360 357 356 350 353 355 358 357 355 354 355 364 367 366 362 360 358 356 369 369 361 362 361 351 349 347 347 346 357 353 355 361 371 366 362 368 356 366 366 367 363 362 361 359 358 357 356 354 351 347 345 344 345 346 346 346 352 352 354 352 356 358 359 360
368 367 366 366 368 366 366 366 367 366 365 370 368 366 368 370 366 368 361 359 358 370 368 354 348 347 347 349 351 351 352 348 357 348 349 359 360 362 361 364 367 367 363 362 361 355 352 353 351 354 364 372 372 368 367 361 366 366 364 365 366 362 357 355 354 355 354 352 353 351 347 347 349 351 349 346 351 358 358 359 359 359 357 354 352
363 364 362 363 363 364 368 368 367 368 368 369 370 370 370 370 370 369 362 353 366 356 352 354 358 351 347 347 345 351 347 336 332 336 342 345 358 366 356 356 355 358 357 354 355 353 354 350 349 347 349 366 367 366 367 367 364 365 363 361 360 360 359 358 356 356 357 354 354 354 353 351 353 355 353 355 360 360 361 360 359 358 356 354 353
353 355 357 354 354 359 362 366 368 368 368 368 369 369 369 368 368 367 363 362 357 363 363 356 356 358 352 356 351 348 344 330 330 333 334 334 338 361 355 356 351 349 351 354 355 357 356 355 350 348 347 360 361 358 370 367 364 358 359 360 360 356 344 342 347 355 354 354 352 351 350 352 354 357 362 364 364 359 358 356 356 356 355 353 352
356 356 354 357 357 358 356 360 363 363 366 367 367 368 368 367 367 367 365 367 366 363 358 364 362 358 356 354 352 346 341 328 326 328 330 331 336 347 356 355 355 353 355 351 348 351 354 360 359 357 360 360 357 357 358 365 371 367 365 364 361 363 360 346 342 342 348 351 351 350 355 360 358 364 367 363 359 356 355 353 355 353 353 352 355
351 350 352 352 354 358 357 353 351 358 360 360 361 361 360 361 362 364 362 356 353 354 362 361 360 357 355 352 348 341 331 321 323 324 325 328 332 353 357 356 356 355 355 355 362 359 362 360 361 359 362 356 350 351 354 357 365 365 370 365 363 365 364 360 359 366 361 355 354 353 354 359 365 364 364 364 361 361 361 359 358 357 357 359 358
346 348 349 351 352 353 355 354 352 351 354 358 358 357 359 359 357 353 353 353 351 356 357 357 356 356 356 353 349 338 331 319 319 320 320 323 333 355 358 362 361 358 357 359 361 363 364 362 362 360 358 349 340 331 340 355 360 361 361 360 359 358 358 364 342 350 360 361 364 361 358 357 343 355 355 351 356 360 359 358 357 357 355 353 351
347 350 352 352 353 354 354 353 353 354 356 354 355 355 354 354 352 353 351 352 354 353 351 353 352 354 354 351 346 339 333 322 317 316 317 318 339 355 360 359 359 358 357 360 360 363 363 362 361 360 355 346 332 323 330 351 359 358 359 357 356 357 358 357 350 350 342 340 337 338 335 333 335 333 329 329 340 343 351 352 352 354 351 348 350
345 347 348 350 352 352 352 351 349 346 349 351 352 354 353 353 351 352 348 349 348 348 349 348 348 349 350 348 342 337 333 324 315 314 315 316 334 350 356 359 357 358 356 360 361 361 360 362 357 352 349 343 324 322 325 348 355 355 355 354 354 354 356 356 358 359 349 347 346 344 339 335 332 331 336 338 335 345 355 350 352 352 350 350 347
342 344 347 349 350 352 351 351 349 348 348 347 350 349 349 349 351 351 349 348 348 348 348 347 347 347 347 345 344 340 338 332 316 314 314 314 328 342 351 356 356 356 357 354 358 359 357 355 352 344 342 332 318 320 323 341 349 351 352 351 350 352 354 352 352 352 355 356 358 360 359 360 366 364 361 350 348 353 356 354 354 353 349 349 349
339 341 343 347 349 350 352 349 350 348 347 347 349 349 349 349 348 346 347 348 347 349 348 345 343 344 345 343 342 342 339 336 326 313 312 314 317 336 349 353 352 353 354 356 354 355 356 349 341 325 321 319 316 314 316 320 341 347 349 349 349 350 350 348 351 351 353 354 356 358 359 361 363 366 362 358 360 364 360 358 357 355 353 349 349
339 339 340 341 341 342 345 345 347 347 346 347 347 350 350 350 349 349 348 348 348 347 344 341 340 341 344 342 341 341 339 337 331 313 312 313 315 326 345 343 342 348 353 354 351 353 353 351 343 327 318 316 313 311 310 315 324 340 348 349 349 345 336 345 349 352 351 354 356 357 359 359 359 363 359 359 360 360 359 362 361 360 356 351 349
337 338 340 340 340 341 341 342 344 347 349 350 346 343 349 349 348 349 346 345 345 344 341 341 338 338 337 335 337 338 339 341 339 322 314 312 313 319 336 337 334 341 351 351 351 351 353 346 342 329 315 315 312 308 308 312 319 336 349 325 318 319 338 345 348 351 352 353 352 353 356 356 353 354 354 358 356 356 356 356 361 362 363 360 355
336 337 338 339 341 341 341 342 343 344 343 344 343 344 343 342 343 345 342 343 343 341 343 341 338 337 337 337 339 339 340 338 335 334 319 313 313 316 318 329 324 342 340 347 346 344 344 342 341 330 310 307 305 308 310 312 322 336 321 313 315 318 330 340 347 351 353 351 351 351 352 354 354 355 352 351 348 349 349 350 353 357 362 362 362
332 334 335 335 338 339 341 342 343 343 344 342 341 337 340 344 345 347 347 344 339 340 344 342 339 336 335 337 340 340 337 335 335 335 329 318 315 315 317 318 320 331 342 339 337 334 337 335 334 309 306 304 304 309 312 319 328 315 311 317 320 330 338 343 346 352 349 347 349 349 347 347 346 346 346 346 345 346 348 350 352 356 354 354 356
332 332 333 334 334 334 339 342 342 342 342 343 342 340 339 338 336 336 340 336 339 339 344 339 338 341 342 339 337 338 337 334 333 334 331 327 319 317 320 322 323 322 336 334 336 337 325 310 307 308 308 307 308 312 317 322 317 315 315 317 335 339 341 348 349 340 343 343 341 337 337 338 341 342 343 343 346 348 347 349 347 346 346 345 345
329 328 330 332 332 332 331 331 334 338 337 339 339 340 335 338 339 345 341 336 336 338 338 339 341 339 343 339 339 338 336 336 335 337 338 336 333 321 318 321 337 338 340 329 327 322 318 316 313 312 317 321 333 340 342 345 333 329 327 331 337 339 344 339 337 338 341 337 332 331 331 333 336 338 342 345 342 341 346 341 338 339 338 337 337
330 329 330 328 330 333 334 336 329 331 332 331 332 336 339 337 336 342 337 333 336 336 334 335 332 335 338 339 336 338 337 333 330 328 329 328 328 332 336 330 331 330 328 325 325 324 328 333 332 326 325 325 326 327 328 330 334 337 339 342 339 332 336 338 337 340 335 330 330 329 331 333 337 339 336 335 338 342 338 337 335 333 333 334 334
326 323 323 326 328 329 330 333 336 328 329 327 326 327 329 329 328 325 326 326 326 326 326 328 327 328 329 335 337 331 325 323 321 321 321 322 324 325 323 323 323 325 321 318 318 323 328 334 331 338 337 336 336 336 334 335 337 337 337 335 336 333 337 331 331 335 333 332 332 333 332 337 332 329 331 332 334 335 336 334 333 331 333 333 331
325 324 325 327 329 333 330 332 328 331 327 324 320 320 323 327 325 322 322 323 324 322 322 321 323 327 325 325 327 324 323 320 318 307 310 306 313 320 319 318 317 320 317 305 314 324 330 334 337 335 333 332 328 325 328 336 342 335 326 329 326 331 333 329 331 329 328 327 326 328 330 328 328 330 330 330 333 330 331 330 332 334 334 333 330
328 328 329 331 329 329 332 327 336 334 329 324 324 320 313 304 316 325 320 311 304 307 312 320 320 328 321 317 319 324 319 319 304 298 295 295 296 297 298 296 297 303 303 304 316 323 329 332 332 330 329 328 323 324 323 324 324 325 326 324 328 325 325 327 325 325 326 326 326 327 327 326 326 328 328 328 328 327 327 326 332 332 330 328 326
330 328 331 330 330 330 332 331 333 334 334 331 330 326 322 319 300 300 310 309 300 295 295 297 302 310 327 319 311 304 304 300 296 295 295 295 294 294 295 295 295 296 298 311 319 323 327 327 329 330 331 327 324 323 325 324 324 323 323 323 325 325 324 325 323 324 324 325 328 326 325 325 326 326 325 324 324 325 328 329 329 329 328 325 324
329 329 326 326 328 330 332 331 331 337 333 336 333 330 329 325 321 304 296 301 299 296 296 296 296 299 304 315 322 313 302 297 295 295 295 295 295 293 294 295 295 295 295 301 317 323 327 327 327 327 327 323 324 326 323 322 324 323 323 321 322 324 324 323 324 324 324 324 323 322 323 323 323 324 323 323 324 325 325 324 325 324 324 325 325
330 327 327 325 329 330 327 330 329 331 329 329 329 331 330 329 324 322 318 297 296 295 295 295 296 296 297 297 301 307 305 298 295 294 294 295 295 296 293 294 297 296 301 317 322 324 326 327 327 329 327 325 326 325 326 324 325 323 322 323 322 323 324 326 326 326 324 322 320 319 320 322 322 321 322 323 323 322 323 322 323 324 324 322 322
327 327 328 329 327 330 329 327 328 332 332 330 330 332 327 328 328 326 322 320 321 309 299 295 293 295 294 294 296 295 294 295 295 295 295 298 296 295 294 304 299 297 302 317 320 323 325 326 324 324 324 325 324 324 324 324 325 324 323 322 321 322 323 324 323 322 320 319 318 319 321 320 320 321 321 321 322 322 321 320 321 321 320 320 319
325 325 324 326 327 329 328 329 328 328 327 326 328 326 327 332 328 327 325 325 323 321 321 318 303 300 307 301 294 293 294 294 295 295 295 295 296 294 295 317 321 324 314 315 320 322 324 325 326 326 328 324 323 323 322 323 322 321 320 320 320 319 320 320 320 320 319 318 319 320 320 320 321 320 319 319 318 318 318 318 318 318 318 318 318
323 320 321 321 325 326 326 326 327 327 325 327 325 323 323 324 324 328 326 326 326 324 324 322 322 312 304 301 294 294 293 293 293 291 292 294 293 297 316 317 318 321 322 325 323 324 325 324 322 324 323 322 322 322 321 320 320 319 320 319 319 318 318 319 319 319 320 319 319 321 319 321 321 319 318 318 317 316 316 316 316 317 317 316 315
323 319 318 321 324 326 325 327 327 325 322 322 321 323 323 323 322 321 322 324 325 325 328 323 323 321 314 318 301 296 294 293 293 293 293 295 292 308 315 316 318 321 321 322 323 322 322 322 322 321 321 321 322 320 321 320 321 321 321 323 323 321 318 318 318 320 322 318 318 321 320 318 318 318 316 315 315 315 315 316 316 315 314 314 313
323 321 322 324 324 324 324 324 321 318 322 318 324 324 320 321 323 321 320 321 322 320 322 325 322 322 319 320 320 318 314 301 298 302 297 297 305 313 316 317 320 321 321 324 325 323 322 322 322 322 321 320 320 319 318 318 319 318 318 319 320 321 320 319 320 320 319 318 317 317 316 315 315 315 315 314 313 313 313 312 311 311 312 313 313
324 320 320 321 318 318 321 320 320 319 319 319 319 319 319 318 318 319 320 320 320 319 320 320 318 319 322 324 321 322 321 318 319 317 317 318 319 319 318 319 321 321 320 320 319 321 320 319 319 319 320 319 320 320 318 317 317 317 319 317 315 316 316 315 315 318 315 315 314 315 314 314 313 312 312 311 311 310 309 310 311 311 310 310 311
322 320 319 319 316 315 316 318 320 319 319 319 318 318 318 319 318 317 318 318 319 320 318 318 319 320 319 319 316 317 316 316 316 316 316 314 315 316 318 318 318 319 318 319 317 317 317 317 317 316 317 318 317 316 317 317 315 315 315 315 314 313 314 314 313 313 312 312 312 312 311 309 308 308 308 308 307 307 307 307 307 308 308 308 308
320 321 319 317 316 316 317 317 316 317 318 319 317 317 316 316 317 316 315 316 317 317 317 320 317 313 311 306 301 306 315 314 314 314 314 314 314 314 315 317 317 316 315 316 314 314 314 314 315 315 315 315 315 315 315 314 313 313 312 312 311 312 311 312 312 311 310 310 309 308 307 306 305 305 304 305 306 305 306 306 306 306 307 307 307
319 318 316 314 313 314 315 316 316 319 319 317 318 316 317 315 315 315 315 315 314 315 315 316 315 312 305 298 298 298 310 313 313 312 313 312 313 314 315 317 317 318 315 314 314 313 313 313 313 313 312 313 313 313 312 311 311 310 309 309 309 309 308 308 308 309 308 307 306 305 304 304 305 305 304 305 303 303 303 303 303 303 303 304 305
322 320 319 317 316 315 313 314 317 316 317 316 316 315 314 313 314 315 316 315 315 315 314 314 314 313 310 304 305 303 314 311 311 311 311 311 312 313 313 313 314 314 313 312 312 313 312 311 311 310 311 310 311 311 309 309 309 308 308 308 307 307 306 306 306 305 304 303 303 303 303 303 302 301 301 301 301 300 300 300 301 302 303 303 303
320 320 320 319 318 318 317 316 315 316 316 317 316 316 315 316 314 314 313 313 314 314 314 313 313 315 312 309 309 311 311 310 310 310 311 311 311 311 311 312 312 312 311 311 311 311 309 309 309 309 310 309 310 310 309 308 308 307 306 305 305 305 303 302 302 302 302 302 302 301 301 300 300 299 300 300 299 299 299 300 300 300 300 300 301
319 319 318 318 317 317 317 321 317 317 315 315 314 314 314 313 313 313 314 313 312 312 312 312 311 311 311 313 313 311 309 309 309 309 309 309 309 309 309 310 311 311 308 309 310 309 308 307 307 306 306 306 307 308 307 307 307 306 305 305 304 301 300 300 301 301 302 302 300 300 299 299 298 298 298 298 299 298 298 298 298 299 299 300 300
318 317 316 316 316 315 316 315 315 314 313 312 312 312 312 312 312 312 311 311 312 312 311 311 310 310 309 309 309 308 308 308 308 308 308 308 308 308 309 308 309 308 307 307 308 308 307 307 305 305 304 305 305 305 305 305 306 306 306 304 300 299 299 300 301 301 300 299 298 298 298 299 298 298 298 297 297 297 297 298 299 299 299 299 299
315 316 316 316 313 313 314 315 314 312 313 312 312 311 311 311 312 312 311 310 309 309 308 308 308 307 308 307 307 308 308 307 307 307 307 307 308 307 308 308 307 307 306 306 307 306 306 305 305 304 304 304 304 304 304 304 304 304 303 299 298 297 297 299 300 299 298 298 298 298 297 297 297 297 297 297 296 296 297 297 298 298 298 299 299
313 312 312 315 313 314 314 313 312 311 311 311 310 310 310 310 310 310 309 309 308 307 306 307 306 306 306 306 306 306 306 305 305 306 305 305 305 306 307 307 306 305 305 304 305 304 304 304 304 304 303 304 303 302 303 303 303 304 300 296 296 295 296 297 299 297 296 297 298 297 297 296 295 295 295 296 296 296 296 296 298 298 298 299 299
312 311 311 310 310 310 311 311 311 309 309 308 308 308 308 308 308 307 308 308 307 307 306 305 305 305 305 306 306 306 305 306 304 304 304 304 305 305 305 306 306 304 303 302 302 303 303 303 303 303 302 303 303 302 302 302 302 302 297 295 294 292 292 293 294 294 293 297 296 296 296 296 295 295 296 296 296 296 296 297 297 298 298 298 299
313 312 313 310 312 310 311 310 309 308 308 307 306 306 307 307 307 307 307 307 306 305 305 305 305 305 305 304 304 304 304 303 303 303 304 304 303 304 303 304 304 303 302 302 301 302 301 302 303 302 302 303 302 302 301 301 302 297 295 293 290 289 289 291 291 290 292 294 295 295 295 295 295 295 295 295 296 296 296 297 297 298 298 297 298
311 310 313 310 311 309 309 308 307 306 306 306 306 306 306 306 307 305 305 305 304 305 305 305 305 305 304 304 304 304 303 304 303 303 303 302 303 302 302 302 302 302 302 302 301 301 301 301 300 300 301 301 301 301 301 301 298 295 293 290 288 287 287 289 292 288 288 290 294 295 295 295 295 294 295 295 296 296 297 297 297 297 298 298 298
Wind_Speed
11 9 9 7 8 9 10 9 9 7 9 7 6 7 7 7 7 7 4 6 6 7 6 5 6 6 7 6 7 5 4 5 4 4 4 4 4 2 2 3 3 3 3 4 4 2 3 3 2 2 2 3 3 4 4 2 3 5 3 3 4 1 2 2 2 4 3 3 4 5 6 6 5 3 5 4 5 4 4 5 4 6 6 4 5
10 8 7 8 9 10 10 10 9 9 9 8 9 8 8 6 7 5 8 5 5 9 7 8 6 6 7 6 4 6 6 4 7 4 5 4 5 6 5 4 5 4 3 3 3 4 2 3 3 4 3 3 4 4 3 5 2 2 4 2 3 4 2 3 3 1 4 3 4 4 6 4 5 4 5 7 5 4 6 5 4 4 4 4 5
11 8 7 7 9 9 9 9 9 9 10 9 10 9 7 8 7 8 8 9 6 5 7 8 6 6 6 3 5 3 2 5 4 3 4 5 5 6 5 5 5 4 4 4 4 3 4 3 4 4 6 1 2 4 4 5 6 3 2 2 2 1 0 2 1 2 4 3 2 4 4 5 4 6 6 6 4 5 5 5 4 6 6 5 5
9 8 8 8 10 10 9 8 10 10 10 9 10 9 8 7 7 9 10 7 9 7 7 6 6 5 4 3 5 5 5 5 5 6 6 5 5 4 2 3 2 4 4 4 4 4 4 3 4 4 2 2 4 4 4 4 3 2 2 2 2 2 3 3 3 3 1 3 2 3 3 4 5 6 7 5 4 4 5 4 4 4 5 5 5
10 11 10 9 8 8 11 10 10 10 10 9 10 10 9 8 5 7 6 7 4 7 4 5 5 5 7 7 6 6 7 6 5 6 5 5 5 5 4 4 5 4 4 3 4 2 3 3 3 2 2 3 2 2 2 4 2 1 3 2 2 1 1 1 2 3 4 5 5 3 4 5 5 7 6 5 4 4 3 4 5 5 4 3 6
6 9 8 8 6 6 6 9 10 10 10 10 10 10 9 7 8 7 7 5 6 8 6 6 5 5 6 5 5 5 5 5 5 5 6 6 5 5 4 5 5 4 4 5 4 4 4 4 4 4 4 3 3 3 2 2 2 3 3 4 2 2 3 4 4 5 5 6 5 6 4 5 3 2 3 5 6 6 6 5 4 3 4 5 4
5 9 9 8 7 6 7 9 8 9 9 9 9 8 8 10 9 7 7 7 8 7 8 6 5 7 6 6 7 6 6 6 4 4 4 3 4 5 6 4 4 4 5 6 6 6 6 6 6 5 4 4 4 3 3 3 4 3 2 1 2 3 4 3 2 3 3 3 3 3 4 3 4 7 7 6 6 6 6 3 2 2 3 4 6
6 8 8 7 8 8 7 6 6 5 5 5 6 7 9 8 7 9 7 5 6 9 10 6 4 7 5 6 5 4 3 4 5 4 4 4 5 5 4 5 5 5 5 4 5 5 5 6 7 6 7 6 6 4 3 4 2 2 2 3 3 3 3 4 4 4 4 4 4 5 3 5 6 6 7 6 4 3 2 2 4 4 6 4 4
6 6 8 7 6 7 6 5 4 4 3 4 6 5 3 6 5 5 7 7 9 9 8 11 10 5 4 2 4 4 5 5 5 4 2 3 3 5 4 6 6 4 4 6 5 4 5 6 6 7 4 7 11 9 6 4 3 1 1 2 2 2 3 3 4 4 5 4 6 5 6 6 5 7 4 3 5 8 4 2 3 5 5 6 6
6 6 7 6 6 7 6 4 4 3 3 3 1 3 3 3 4 6 5 6 5 4 5 4 6 8 7 6 6 7 6 6 8 9 9 5 5 5 5 2 2 3 4 3 6 6 8 7 7 9 4 11 11 10 8 7 5 4 2 2 2 3 3 4 5 5 5 5 5 5 6 6 5 4 5 5 6 4 6 7 7 6 7 6 6
4 5 5 3 4 6 5 4 4 3 2 2 2 3 2 2 4 2 1 3 4 2 2 4 6 6 9 10 9 7 6 3 5 16 15 13 7 5 4 3 3 3 2 3 3 5 6 7 7 5 3 4 4 6 5 7 7 5 4 5 4 4 4 5 5 5 5 5 5 5 5 5 5 5 5 7 4 6 6 6 7 7 7 8 9
5 3 1 2 4 3 1 4 4 3 4 4 3 3 3 3 3 3 2 4 2 3 4 4 4 5 5 5 9 3 7 10 13 13 6 4 3 1 4 3 3 3 4 5 4 5 5 6 7 8 4 3 3 5 7 8 7 7 7 7 7 7 6 5 5 5 5 6 6 5 6 6 5 5 6 6 6 6 5 6 6 6 7 8 8
2 3 3 3 5 3 4 5 4 4 4 3 3 3 3 3 3 3 4 3 3 2 3 4 4 3 4 6 9 11 7 12 12 12 11 11 10 7 3 3 4 5 5 5 4 4 5 5 6 7 8 10 10 10 5 5 8 9 9 8 8 8 9 9 9 9 7 7 7 8 7 6 6 5 4 5 4 5 6 6 6 6 7 9 9
1 6 5 5 3 2 4 6 3 4 3 3 1 2 2 2 4 2 2 2 2 5 6 7 7 7 7 6 6 8 8 9 9 9 9 9 9 7 3 4 3 4 4 6 8 7 5 3 4 5 6 6 5 7 7 7 4 5 4 4 5 7 9 12 11 12 9 7 8 9 8 5 6 3 3 4 4 4 6 7 6 7 7 8 9
4 3 3 4 6 6 6 3 8 4 2 2 3 2 3 2 5 2 4 7 8 5 5 3 5 6 6 5 6 6 6 9 9 9 8 7 7 3 2 4 4 5 5 5 3 5 7 5 3 3 4 6 6 8 7 7 7 4 1 2 3 3 3 1 0 2 3 6 8 9 9 6 3 3 3 3 3 4 4 6 7 7 9 8 7
8 2 2 3 3 4 4 3 0 5 6 5 3 2 2 2 4 7 6 4 2 5 2 3 3 3 3 3 5 6 5 10 10 10 10 10 6 2 2 2 3 4 4 5 4 4 4 5 3 3 5 5 8 10 8 6 5 5 5 5 5 5 4 4 5 4 4 3 3 4 4 3 3 3 4 4 5 5 6 6 7 7 8 7 7
4 4 4 3 2 2 2 2 2 1 2 3 2 3 3 4 3 3 4 3 1 4 2 2 1 2 5 5 5 6 5 8 10 10 10 12 8 2 2 2 3 4 4 5 4 4 5 5 5 4 5 5 6 8 10 10 4 5 5 6 6 6 4 2 2 1 1 3 5 6 8 9 10 11 11 11 8 4 3 5 5 6 7 8 7
4 5 5 5 5 4 3 3 6 4 2 3 2 1 2 4 4 4 4 3 4 5 5 5 5 5 6 6 6 5 4 6 9 9 9 11 8 4 3 3 3 3 3 2 2 3 5 10 9 6 5 4 7 8 10 8 5 6 6 7 6 6 3 4 5 6 8 8 8 8 8 8 9 10 8 6 9 3 2 4 6 5 5 5 7
4 4 5 6 6 6 6 7 6 4 1 3 2 3 4 3 2 3 4 4 3 3 4 4 3 4 5 7 9 6 5 5 8 8 9 9 7 4 4 3 2 2 2 1 2 2 1 7 9 7 5 3 3 4 6 6 4 4 5 6 6 6 3 5 6 7 7 7 6 7 7 7 5 4 5 9 7 1 3 5 4 3 5 5 6
5 5 5 6 7 8 6 6 6 5 5 5 4 5 4 4 4 5 6 6 5 5 4 4 5 4 4 5 5 4 4 4 6 7 7 9 9 4 4 3 2 2 1 1 2 0 0 4 5 6 5 4 4 4 3 4 2 3 4 4 5 6 5 5 6 6 6 6 6 6 7 6 5 4 3 4 3 2 4 4 4 4 4 5 5
6 6 7 8 8 8 8 7 7 6 4 3 2 0 3 5 3 3 4 6 7 6 6 6 5 4 4 5 4 4 4 4 5 8 8 9 9 7 4 5 5 4 2 1 2 0 1 4 4 5 5 5 4 6 4 2 2 3 3 4 4 5 5 5 7 9 6 6 6 5 4 4 4 2 2 2 3 4 4 3 3 3 4 5 6
7 7 7 8 8 7 7 6 7 5 3 2 3 4 4 2 3 5 4 6 4 6 8 6 6 5 3 5 4 5 5 6 4 4 5 6 7 8 5 4 3 3 4 2 3 2 1 5 4 2 3 6 7 7 8 7 4 2 3 2 7 6 5 5 6 6 5 4 5 4 5 4 3 2 3 2 2 2 4 5 4 4 4 5 6
6 5 5 6 6 7 8 8 6 4 5 4 4 4 4 6 4 4 6 5 4 2 4 7 7 7 6 4 4 5 4 4 3 2 1 5 5 6 5 4 9 6 5 1 3 5 5 4 3 3 5 5 6 8 8 9 6 4 6 7 7 6 4 4 5 5 3 4 4 4 5 3 2 2 3 4 5 5 6 6 7 6 4 5 6
5 5 4 4 5 6 6 6 5 5 5 6 5 6 5 3 3 2 2 4 6 6 3 3 4 6 6 6 7 6 5 4 3 4 4 5 5 7 8 9 8 8 5 7 7 6 5 4 4 6 7 7 7 6 7 8 7 9 11 11 8 6 5 5 6 3 4 4 4 4 5 5 5 5 5 5 6 6 6 7 6 4 4 5 4
4 3 2 2 2 4 5 4 4 3 4 3 3 3 5 4 4 4 5 5 4 3 2 4 5 4 1 7 8 7 5 5 4 3 3 2 4 8 9 9 10 12 8 8 7 6 4 6 8 8 7 9 10 9 7 8 12 12 12 12 9 4 6 4 2 5 4 4 5 6 6 6 6 5 6 6 6 6 5 5 5 6 5 5 5
2 2 4 5 3 3 2 4 3 5 5 3 4 3 6 5 3 0 3 4 4 4 4 2 1 2 3 4 5 7 7 5 6 4 3 4 3 3 7 9 13 14 8 9 11 9 7 9 10 10 10 9 6 4 4 4 7 12 12 10 5 6 2 4 4 4 3 4 5 5 5 5 6 5 6 5 5 6 4 6 6 6 7 7 8
2 2 1 2 3 5 6 2 2 3 4 4 4 2 3 3 3 4 5 3 1 1 2 2 2 3 2 2 4 4 6 8 7 6 5 5 6 6 6 8 11 11 7 7 9 7 8 8 7 10 9 12 12 11 10 11 8 6 6 4 2 4 3 4 2 1 5 5 4 4 5 5 5 5 6 6 5 5 6 6 6 6 7 7 7
2 1 2 2 3 4 4 6 5 2 7 8 8 8 8 7 8 8 6 6 6 6 8 9 8 9 7 2 3 7 8 6 7 6 6 6 5 6 6 6 7 6 6 7 7 8 7 8 9 8 7 8 8 7 6 5 4 4 2 2 3 3 3 7 6 7 4 4 4 4 5 4 5 5 5 5 5 5 5 6 6 7 6 6 6
0 1 0 1 3 1 2 3 4 2 9 9 8 6 5 7 8 7 6 5 5 6 6 7 7 7 7 7 7 7 6 6 4 4 4 5 5 4 5 5 5 5 5 8 7 7 6 6 6 6 5 4 3 5 3 2 2 1 5 4 4 3 4 4 5 6 6 6 6 6 5 5 5 5 5 5 5 6 6 7 6 6 6 5 6
1 2 2 2 2 1 2 1 5 8 4 7 7 7 9 10 8 6 5 5 10 10 9 6 3 4 7 6 6 5 5 3 4 3 3 3 5 6 2 3 4 5 10 15 6 5 6 6 6 4 3 4 4 4 4 5 5 5 4 5 4 5 5 6 7 6 6 6 6 5 5 6 6 5 5 5 5 5 6 6 5 5 6 5 6
2 2 2 3 3 3 2 4 3 3 4 5 5 6 5 7 12 11 8 8 9 11 10 7 8 9 7 6 7 12 10 7 4 3 4 5 7 7 8 8 6 5 8 9 7 6 6 6 4 4 3 3 3 5 5 5 5 5 5 5 5 6 5 6 6 5 5 5 4 5 5 6 6 5 5 6 6 5 5 4 5 5 5 6 6
2 2 3 3 1 2 4 3 2 1 3 3 3 5 5 5 4 7 7 7 9 9 10 10 9 10 10 8 6 3 4 4 4 4 4 6 5 6 8 9 10 6 4 1 4 6 6 5 4 3 3 4 4 4 6 6 5 5 5 6 5 5 5 6 5 5 5 4 6 5 6 6 6 6 6 6 5 5 5 6 5 6 6 5 5
1 3 4 2 1 2 2 2 2 4 2 2 2 2 1 3 5 3 2 8 9 9 6 6 10 10 11 11 9 8 7 6 5 5 4 2 3 4 7 9 10 8 4 4 5 6 6 4 4 2 2 3 3 3 3 4 4 4 4 4 4 5 5 6 6 5 5 6 6 6 6 5 6 6 5 5 5 6 6 6 5 5 5 6 5
6 5 4 2 1 0 1 3 1 2 3 4 4 0 2 2 2 5 4 2 2 2 4 6 5 8 9 7 10 10 9 8 6 5 3 3 2 1 3 7 12 14 6 5 5 5 5 2 3 3 4 3 3 4 4 4 4 4 4 4 5 5 5 6 5 5 5 6 5 5 5 5 5 6 5 5 5 6 6 5 6 6 6 6 7
4 3 3 3 1 1 1 1 2 3 3 3 3 2 4 1 0 2 1 4 5 5 4 3 2 5 3 4 4 7 7 6 6 7 7 2 1 3 3 6 7 5 3 5 6 6 6 4 3 2 2 3 4 4 4 4 4 5 5 5 4 4 4 4 4 5 5 5 5 5 5 5 5 4 5 6 6 6 6 6 6 6 6 6 6
4 4 3 2 0 2 2 3 3 3 3 2 1 2 2 3 3 0 1 1 0 2 4 5 4 6 5 6 10 9 8 8 7 7 6 6 3 1 3 5 5 5 3 4 6 6 4 3 4 4 4 4 4 4 4 5 4 4 4 4 4 5 5 5 4 4 5 5 4 5 5 4 4 5 5 5 6 6 6 6 6 5 6 6 7
4 6 5 3 2 2 3 3 3 4 3 2 3 3 3 3 2 2 3 4 2 1 4 6 4 3 1 4 6 3 6 7 8 0 4 4 4 2 4 4 6 5 4 3 3 4 5 4 5 5 5 4 3 3 4 4 4 4 4 3 3 4 4 4 6 5 4 4 5 4 5 6 6 6 6 6 6 6 6 6 7 7 7 9 9
7 6 5 3 2 3 2 1 3 2 2 2 2 2 3 3 2 3 3 2 2 3 4 2 5 6 7 6 8 6 7 8 4 2 5 1 1 3 5 5 6 6 4 3 3 3 3 4 4 3 4 4 4 4 4 4 4 4 4 4 5 4 5 5 5 6 6 5 5 5 6 6 6 6 6 6 7 7 8 9 8 8 7 8 7
4 7 7 7 5 4 2 2 3 3 2 3 3 3 2 2 2 3 2 2 2 3 3 2 2 3 5 7 6 7 7 4 4 1 5 3 1 4 5 6 5 3 4 4 7 6 5 4 5 6 6 5 5 4 4 4 5 4 4 4 4 5 5 5 5 5 5 5 6 6 5 6 8 10 10 9 9 10 9 9 9 9 9 8 8
5 5 5 7 1 0 1 3 2 2 2 2 2 2 2 2 2 2 2 3 3 3 3 3 2 6 5 5 5 3 3 4 6 4 2 4 5 6 5 4 5 4 5 5 6 6 6 5 5 5 5 5 5 5 5 5 6 7 6 5 5 4 5 5 6 6 7 7 7 7 9 9 9 8 8 8 8 8 9 9 8 9 8 9 9
4 5 6 4 4 2 1 2 3 3 2 2 1 1 2 2 2 3 3 4 4 4 3 2 5 6 5 6 6 6 4 3 3 4 3 2 4 5 6 4 4 5 4 4 6 5 6 6 5 5 5 5 5 6 5 6 6 6 7 7 7 6 6 6 6 7 7 7 8 8 8 8 7 7 7 7 8 8 7 8 8 8 8 8 9
4 6 6 5 4 3 3 3 3 2 2 2 1 1 2 2 2 2 3 3 3 4 4 2 7 4 4 7 7 5 4 3 4 4 4 3 3 4 4 3 3 3 4 4 5 5 5 4 5 5 5 6 6 6 6 6 6 6 6 6 6 7 7 7 7 7 7 8 8 8 8 7 7 6 7 7 7 7 8 8 8 9 8 9 9
6 6 6 6 5 5 4 4 3 4 3 3 3 2 2 2 3 3 2 2 3 3 3 2 4 5 4 5 4 4 1 3 3 3 3 3 4 4 3 3 3 5 7 5 4 4 4 5 5 5 5 5 5 5 5 6 5 6 6 6 7 6 7 6 6 7 7 7 7 8 8 8 8 8 7 8 8 8 9 9 8 8 8 9 9
6 5 6 7 7 7 5 5 6 4 4 3 3 2 2 2 3 4 4 3 2 2 3 3 3 4 5 4 5 1 3 2 3 3 4 4 4 4 4 3 4 4 4 3 3 4 5 5 4 4 5 5 5 6 5 5 6 6 6 6 6 7 7 7 7 7 7 7 8 8 8 8 9 8 9 9 8 9 9 9 9 9 10 9 9
7 7 6 7 6 5 7 4 1 3 2 2 3 3 3 3 3 3 2 3 3 3 3 3 3 4 3 2 2 2 2 2 3 3 3 4 4 4 4 4 4 5 6 4 5 5 4 4 5 5 5 5 4 5 5 5 5 6 6 6 6 6 6 6 6 6 7 7 7 7 8 8 8 8 8 8 9 9 9 9 10 10 10 10 10
3 3 2 3 1 1 2 3 2 1 1 4 4 4 4 4 4 4 4 3 3 2 2 2 2 3 3 3 3 4 4 4 4 4 4 4 4 4 4 3 4 4 4 4 4 4 3 4 4 4 4 4 4 5 5 5 4 4 5 6 7 5 5 4 5 5 6 7 7 7 8 9 9 8 10 9 9 9 9 10 10 9 10 10 9
5 5 5 6 4 1 1 2 4 5 4 4 4 4 4 4 3 4 4 3 1 1 1 2 3 3 3 4 4 3 3 4 4 4 4 4 4 4 3 3 2 3 4 3 3 4 4 4 4 4 5 4 4 4 4 4 3 4 5 6 5 5 5 5 5 6 6 6 6 7 8 8 9 9 10 10 9 9 10 10 10 11 11 10 11
5 4 4 4 5 4 4 4 1 2 3 3 3 4 4 3 3 2 2 2 3 4 4 3 2 3 3 3 2 3 3 3 3 4 4 4 4 3 3 3 3 3 3 4 4 4 5 5 4 4 4 4 4 4 4 3 3 4 5 5 5 4 5 6 5 6 5 5 6 7 7 7 8 8 8 9 9 10 10 10 10 10 11 11 11
5 5 5 6 5 4 5 4 4 3 3 3 4 4 4 4 4 3 3 3 3 2 1 2 3 3 3 4 3 2 2 2 4 4 5 4 3 3 2 2 3 3 4 5 4 4 5 4 4 4 5 5 4 4 4 4 4 2 7 5 5 6 9 11 6 5 5 5 5 6 7 7 8 9 9 9 10 10 10 10 10 11 10 11 11
3 5 6 6 3 3 3 2 3 3 3 4 4 4 5 5 3 3 3 2 1 2 2 3 3 3 2 3 3 3 3 4 3 3 3 3 4 3 3 3 3 3 4 5 5 5 5 5 4 4 4 4 4 4 4 5 2 7 6 5 5 7 7 8 9 8 6 5 5 6 6 7 8 8 9 9 10 10 11 11 11 11 11 11 11
6 5 3 3 4 4 4 4 5 5 5 5 6 5 4 2 0 1 2 3 3 3 2 2 2 2 2 4 5 5 5 3 3 4 3 3 4 4 4 4 3 3 3 3 4 4 4 5 5 5 4 4 4 4 4 2 6 5 7 8 7 8 7 7 5 5 7 4 4 6 7 8 9 9 9 9 9 10 11 13 12 11 10 10 10
Wind_Direction
168 185 179 192 173 178 182 190 175 187 188 193 198 211 188 192 184 188 195 189 180 183 182 211 173 198 192 195 195 191 187 197 196 174 205 204 247 227 226 187 222 226 219 252 264 250 200 216 250 273 289 288 282 282 287 247 206 185 176 54 5 102 139 139 219 275 294 301 297 302 328 316 302 338 325 323 307 304 308 281 275 274 276 295 314
168 183 180 184 185 186 187 186 187 187 194 193 213 205 199 176 177 167 194 200 197 192 187 195 183 204 204 190 202 182 189 192 197 190 191 203 218 220 198 194 216 234 245 240 220 246 236 208 229 250 241 222 243 269 271 293 296 351 96 119 183 262 196 168 207 241 289 294 303 319 292 315 320 343 319 303 292 307 305 302 298 313 315 319 318
168 178 176 181 184 190 195 185 197 194 192 198 212 202 199 199 177 179 201 187 201 209 197 194 183 189 214 180 161 180 212 191 214 191 214 198 212 236 224 189 205 226 229 227 251 232 241 237 237 232 242 211 2 318 340 355 303 273 285 198 200 265 193 204 144 259 278 287 307 305 321 329 313 304 295 290 299 306 319 312 323 333 328 322 327
160 163 175 189 193 186 200 196 195 203 202 196 204 205 193 204 191 201 205 196 185 202 204 202 174 196 175 195 181 180 206 213 204 199 202 218 208 231 245 286 268 254 245 236 229 233 244 243 257 264 288 191 190 191 236 230 249 325 271 250 181 221 242 251 225 219 261 300 286 286 285 292 288 278 275 283 297 313 296 308 328 314 294 311 320
170 170 179 193 193 190 195 203 200 200 210 206 198 206 213 197 195 221 211 216 187 195 195 220 170 187 202 190 195 187 195 211 211 224 208 203 213 228 229 215 219 226 240 249 256 264 265 272 274 280 256 251 236 248 257 258 260 177 257 322 336 271 275 315 334 297 271 263 264 251 264 266 263 270 271 291 305 284 288 293 291 278 293 310 318
170 158 175 188 187 201 200 202 205 204 207 215 213 209 192 185 198 212 222 212 183 218 203 194 189 195 208 196 201 203 206 211 206 222 227 210 209 213 231 228 220 223 232 228 230 244 252 238 243 241 257 273 280 249 245 351 354 295 290 270 256 350 328 299 265 254 249 254 261 276 260 267 286 298 315 313 296 291 286 282 281 296 315 313 305
175 158 175 183 179 199 209 204 214 207 205 217 217 204 209 202 180 198 211 210 206 195 215 202 178 192 207 218 204 201 206 213 209 222 245 222 211 236 228 236 234 234 241 236 240 230 224 229 216 222 233 233 256 258 258 231 234 245 240 251 238 233 241 249 280 300 298 302 294 292 310 312 337 310 292 272 270 268 276 295 302 313 318 328 310
175 160 176 183 174 191 202 214 218 219 199 211 250 221 201 213 198 178 196 212 234 219 187 217 226 185 203 224 223 210 224 222 221 204 226 248 231 215 224 237 249 240 238 249 253 259 256 244 240 216 208 209 210 231 255 274 309 329 343 350 359 12 2 347 330 313 312 308 290 295 295 299 289 273 278 301 302 299 270 294 312 320 320 302 291
179 165 175 189 174 181 195 215 237 218 209 197 224 268 248 203 202 181 174 208 212 222 219 163 210 193 213 238 239 209 206 231 242 216 228 243 274 256 234 225 227 250 256 265 264 250 252 272 285 261 230 203 203 200 203 139 146 175 264 322 340 347 318 303 288 293 290 289 292 288 285 284 278 279 295 303 340 312 293 339 322 315 307 312 299
180 175 176 192 176 176 183 207 219 223 215 222 232 237 261 290 225 193 195 207 226 233 220 221 208 187 184 219 227 227 213 206 217 216 209 222 231 247 259 268 253 253 262 251 261 273 278 273 273 291 304 277 270 207 189 169 184 221 187 179 224 258 262 265 265 260 259 265 275 292 291 284 291 312 329 323 296 315 344 353 337 327 324 308 296
163 175 173 194 187 172 179 199 205 215 194 191 220 278 304 302 323 329 248 197 224 248 263 235 227 226 198 200 212 213 223 349 311 200 196 198 208 209 228 251 281 289 283 290 302 299 301 313 308 305 191 215 132 163 193 207 204 211 219 224 219 222 257 264 266 274 274 273 274 277 281 296 306 315 308 312 350 355 340 336 328 325 323 325 318
159 162 5 37 24 344 299 203 205 198 200 193 200 214 243 264 299 305 282 247 182 247 247 253 279 283 257 221 219 228 65 14 25 19 28 34 27 261 240 256 255 252 231 232 241 257 269 271 271 278 278 135 204 208 209 208 207 215 226 232 234 232 230 239 268 284 285 296 299 297 305 301 305 321 323 334 341 338 336 330 320 325 322 317 315
277 182 210 90 271 272 244 239 200 201 196 202 199 208 225 228 239 257 251 274 304 280 257 250 245 273 302 4 28 57 49 18 14 31 22 21 11 349 261 251 279 291 303 310 286 243 236 252 274 287 289 7 20 8 322 241 217 216 223 235 247 246 243 239 232 239 261 268 270 272 273 289 296 304 339 355 359 346 338 323 325 318 314 304 300
159 126 151 173 173 203 320 282 234 205 183 157 171 195 190 221 233 213 293 294 323 7 345 4 26 38 50 62 74 60 58 12 15 24 31 20 18 357 332 302 282 277 298 299 298 302 310 346 14 27 36 43 23 11 354 332 264 215 227 234 245 253 242 239 249 251 251 258 264 268 271 275 288 332 5 6 352 326 315 308 312 308 304 296 295
65 27 98 148 185 192 184 197 255 259 251 200 221 218 282 282 254 335 1 7 345 332 308 360 32 44 55 62 74 76 51 19 14 18 21 24 359 340 323 306 310 304 299 301 301 17 29 35 40 42 45 49 23 8 3 341 336 325 274 268 262 270 288 83 268 270 238 222 243 257 268 284 325 346 335 328 309 292 285 301 312 308 301 293 287
119 165 157 203 198 196 175 181 336 300 297 282 256 266 282 295 17 28 25 21 243 249 14 15 50 48 72 99 97 89 56 27 19 12 9 358 332 289 285 284 292 290 274 280 1 47 28 30 26 51 67 58 17 2 353 332 339 343 343 337 322 319 328 107 82 48 29 5 344 337 335 317 227 256 274 292 302 312 331 326 311 302 304 309 314
92 102 128 156 163 151 152 119 134 255 255 325 344 12 9 5 46 100 147 204 251 110 132 101 83 84 71 81 82 78 62 24 23 19 14 2 340 352 317 305 284 304 331 23 21 29 43 33 44 53 72 57 20 5 354 344 342 342 332 326 325 317 335 43 263 139 255 287 286 297 306 313 318 316 319 317 312 338 333 324 307 314 310 311 315
51 73 68 62 58 54 72 106 102 96 227 220 273 343 36 73 70 99 100 71 55 70 84 62 52 60 71 93 95 92 78 38 29 24 21 11 348 345 341 323 338 339 312 11 43 57 44 51 41 38 42 37 10 5 356 348 351 346 336 332 326 314 336 350 351 328 336 330 324 315 296 287 289 284 284 305 322 358 341 294 302 312 300 302 312
36 49 64 70 70 59 71 89 106 142 105 31 353 82 89 105 189 127 129 131 102 75 86 103 96 66 73 78 88 86 80 58 34 22 24 22 12 338 339 328 314 297 294 302 315 55 85 72 66 58 48 33 24 10 0 351 342 341 333 318 307 306 357 9 338 328 324 324 321 320 309 298 278 300 326 336 325 155 217 259 287 283 296 308 310
23 24 37 49 58 55 59 93 109 115 84 85 95 113 120 114 148 139 147 150 142 133 122 120 117 89 72 73 68 67 72 55 34 21 23 22 18 344 289 307 318 317 308 60 332 193 38 108 65 52 40 28 358 9 15 12 334 331 321 296 297 299 345 331 315 307 301 297 296 291 286 285 302 310 338 326 324 287 278 265 285 306 295 296 296
25 32 43 49 53 57 60 54 66 83 89 73 23 183 153 130 112 104 141 136 139 135 140 125 118 104 88 88 81 64 67 67 44 16 20 23 21 9 342 31 12 349 43 42 308 25 91 82 80 48 25 16 2 347 7 344 301 303 304 313 322 322 330 303 300 304 295 284 275 286 316 337 316 346 323 302 288 302 287 261 257 259 270 293 302
30 23 32 52 53 49 49 50 54 54 94 121 74 39 32 110 176 171 136 101 107 171 153 143 131 118 109 103 110 101 82 72 71 23 16 29 31 27 33 40 356 313 317 214 204 160 155 90 60 41 18 19 355 348 334 328 323 279 296 272 290 325 315 294 288 277 279 317 335 331 321 319 353 340 305 301 301 309 324 315 287 249 234 238 246
34 25 48 49 58 59 53 34 28 33 51 57 55 48 57 63 46 45 87 114 127 100 133 147 138 133 142 144 112 109 102 79 69 106 34 42 47 61 48 28 354 5 338 321 59 49 58 86 79 61 30 18 344 329 312 308 286 245 260 283 287 292 288 272 273 279 319 334 331 330 314 316 332 340 326 8 351 344 326 308 299 284 238 242 238
64 22 12 69 73 66 57 58 41 25 28 32 41 41 38 35 43 10 219 158 144 137 184 171 154 141 139 140 135 129 120 132 124 94 70 34 21 32 30 27 23 353 354 27 35 41 15 27 11 354 351 319 304 290 291 290 278 292 295 284 286 278 261 276 272 335 359 333 319 320 343 343 341 346 7 357 336 317 299 291 288 317 332 315 321
26 21 9 79 83 112 136 129 129 98 77 70 30 34 21 20 36 339 344 18 42 69 21 46 34 63 92 154 150 143 138 144 132 104 81 35 352 359 1 10 25 21 19 37 17 11 347 330 341 325 305 296 287 287 270 257 261 264 269 277 279 278 250 230 16 32 353 344 356 4 346 349 346 352 347 325 304 300 298 306 343 338 324 340 331
93 33 341 341 27 90 142 137 142 153 155 181 192 175 182 186 142 105 27 54 13 28 324 72 119 119 258 71 103 135 155 141 108 91 57 17 11 4 3 358 8 9 32 33 4 340 323 294 287 289 286 277 280 277 273 261 252 260 264 270 292 278 28 56 36 359 355 15 15 348 344 330 336 325 303 305 309 303 333 353 346 335 347 334 333
62 44 2 33 356 6 4 17 189 160 197 193 172 205 112 91 88 37 23 356 48 355 232 141 279 122 145 63 72 86 71 63 62 49 33 31 20 27 23 12 16 12 18 7 352 338 318 306 287 278 273 285 282 274 271 286 288 271 255 239 239 356 338 71 332 356 53 23 353 344 324 315 306 319 335 320 315 350 6 348 346 342 331 331 328
74 60 31 16 14 357 345 333 336 120 63 48 41 43 43 64 65 49 35 27 31 33 18 30 27 12 2 45 90 64 59 49 40 27 20 18 29 25 31 24 15 4 4 357 330 315 309 302 294 269 264 269 270 254 241 231 245 245 289 6 51 307 323 30 13 75 47 25 343 324 303 314 342 332 315 324 348 353 358 353 347 325 323 327 317
161 168 169 72 81 335 312 325 323 59 96 72 61 36 27 70 82 77 49 28 41 45 37 39 20 25 47 24 63 88 67 57 40 40 51 35 30 26 26 17 357 354 2 341 320 308 307 297 287 285 261 260 298 327 330 130 179 6 4 8 3 322 52 357 32 42 21 2 347 319 324 354 327 319 327 331 356 354 350 333 318 313 323 311 301
50 65 80 21 79 271 310 253 57 2 54 110 106 80 52 47 41 88 98 61 64 65 78 73 8 22 73 43 18 61 96 97 118 69 65 49 44 51 22 359 356 341 334 327 308 283 293 292 283 298 325 358 321 295 348 10 6 6 11 355 337 14 10 45 33 5 4 350 325 327 352 335 317 323 335 343 349 338 318 305 320 336 318 321 325
145 93 80 68 359 15 0 41 20 52 19 105 99 100 100 54 46 51 91 127 103 89 83 89 60 46 83 100 60 62 83 101 102 79 53 37 29 10 360 339 348 345 354 357 340 323 305 299 314 325 346 327 323 5 10 355 19 0 355 351 354 9 10 52 24 353 348 323 325 358 334 322 326 336 346 345 328 316 319 343 331 327 333 338 330
215 127 103 108 317 327 43 28 16 7 60 28 115 141 130 111 76 39 44 73 84 96 106 91 80 80 74 98 127 96 97 104 118 101 63 38 14 360 340 333 321 325 322 268 301 297 300 302 317 323 347 335 2 2 11 357 0 2 353 354 349 2 5 26 9 343 320 347 3 338 338 337 334 350 340 320 321 327 345 335 336 338 334 332 340
84 107 104 119 122 338 107 56 31 333 70 106 86 356 359 171 142 141 64 44 70 82 63 98 115 109 96 84 84 115 142 158 153 123 107 101 20 337 323 303 294 291 319 292 278 290 286 282 282 305 353 355 2 357 17 359 356 349 353 341 344 3 8 14 349 328 3 12 349 332 326 331 345 329 311 323 340 338 335 330 336 331 335 344 344
52 36 24 59 91 172 101 135 185 117 30 17 4 86 177 332 94 148 153 136 70 39 91 62 41 85 78 98 122 128 138 151 154 134 133 160 221 315 333 297 292 277 217 248 273 273 278 284 357 4 358 0 345 5 354 346 2 351 351 360 3 350 358 3 334 4 6 349 327 320 329 339 324 316 333 336 335 335 333 338 335 343 350 347 333
118 102 53 7 243 166 54 53 64 72 48 35 8 345 351 93 276 307 158 164 174 175 189 159 211 258 167 139 131 136 147 154 176 185 189 146 78 287 286 293 299 298 171 224 230 257 272 312 342 354 351 341 11 12 348 349 8 3 356 352 341 343 352 331 336 1 347 327 314 316 331 312 315 335 339 341 342 339 341 336 342 343 337 330 339
147 151 179 194 175 90 80 68 42 25 49 25 359 337 344 337 333 10 162 282 221 172 144 155 170 204 196 148 152 165 173 203 204 200 173 162 195 163 321 285 288 283 286 192 210 231 269 4 354 358 17 4 3 350 5 352 4 1 346 332 340 351 331 329 341 325 306 290 304 312 299 306 332 343 341 336 337 334 333 332 326 326 338 350 351
166 157 168 194 208 139 108 84 58 54 29 359 351 335 321 322 317 314 328 339 347 237 108 139 141 139 216 171 151 179 231 239 232 305 74 166 186 220 263 273 280 294 277 333 345 355 0 7 19 358 350 348 352 1 1 345 348 330 320 323 345 315 319 331 306 289 301 332 317 316 348 353 358 348 345 336 336 333 325 333 346 350 352 339 332
59 45 41 54 92 93 97 121 120 105 229 271 306 294 304 320 331 333 327 317 328 341 341 157 174 170 191 189 163 182 222 241 286 288 193 164 249 242 239 248 257 268 332 3 39 24 5 358 354 344 350 337 338 358 348 332 331 328 327 335 323 307 329 324 334 344 342 329 344 0 355 349 342 338 336 336 337 345 356 354 345 334 328 323 321
112 106 93 55 43 16 345 194 169 190 180 204 208 231 246 266 293 295 255 246 256 274 254 255 275 297 60 112 164 200 203 213 214 70 34 3 262 236 236 243 253 343 356 10 12 11 22 19 15 0 356 357 354 8 343 334 336 317 323 314 318 337 342 340 334 340 329 340 353 355 345 351 4 5 360 355 358 358 346 342 337 337 332 330 332
156 164 136 137 142 154 299 315 305 230 221 201 222 221 228 227 258 254 269 286 281 242 221 240 277 68 68 51 45 16 4 347 333 324 2 358 334 334 320 334 351 356 357 23 26 9 355 5 30 9 352 353 356 357 354 342 334 331 329 326 335 332 341 343 343 345 357 1 353 0 14 18 11 4 359 357 354 345 337 336 335 327 328 325 321
207 159 146 150 126 154 220 257 254 268 258 238 272 265 268 311 312 311 310 307 307 304 308 308 75 83 74 86 58 42 7 346 330 327 302 326 336 321 315 330 353 21 9 29 35 7 6 357 359 6 356 352 349 348 349 349 344 337 336 341 339 344 341 343 358 5 357 353 3 9 9 2 0 355 347 345 337 330 327 325 325 331 328 327 326
208 137 150 150 152 191 200 234 265 261 265 298 303 281 315 304 285 281 290 295 292 297 298 21 95 104 91 86 71 33 36 332 336 319 313 302 299 293 302 353 0 1 356 1 27 12 359 356 355 4 358 350 350 348 344 337 337 333 334 334 339 341 347 353 357 354 357 359 3 360 352 347 349 347 343 343 340 342 336 339 333 326 320 316 318
215 155 172 152 172 182 195 200 229 234 212 225 239 254 275 288 287 286 264 251 264 292 319 325 114 120 132 139 156 191 331 359 316 299 283 279 258 270 302 345 347 29 33 25 16 6 353 352 352 354 348 348 346 339 333 330 337 329 336 337 337 344 344 343 347 1 9 2 353 350 351 351 351 349 347 345 343 337 329 319 316 318 325 330 327
222 187 166 170 176 178 192 194 188 208 241 209 217 246 234 224 228 242 262 288 290 280 272 271 273 158 149 186 207 182 39 357 354 337 349 339 336 331 329 338 344 3 356 1 5 7 349 338 338 346 354 341 336 340 333 328 331 336 331 336 332 345 20 29 19 8 354 352 345 349 350 351 347 341 335 333 331 326 321 323 328 331 327 321 321
214 207 208 204 199 191 203 231 4 104 177 253 253 237 235 252 269 272 257 244 247 259 275 297 312 318 311 292 303 341 10 358 339 347 337 338 334 331 328 331 348 9 354 341 19 17 355 337 334 337 337 333 336 332 334 344 344 334 334 329 355 44 36 15 13 355 348 350 351 347 340 335 333 329 328 328 328 325 324 326 325 323 321 322 321
252 256 273 269 204 181 129 127 118 108 259 256 243 234 227 229 234 242 239 247 260 272 283 275 282 296 296 304 317 329 338 350 344 341 331 314 309 311 314 328 341 340 337 345 351 357 342 333 320 315 316 320 322 326 330 341 335 333 333 34 63 48 31 14 356 12 20 17 354 338 328 326 326 326 329 329 325 322 319 319 317 318 318 319 318
58 49 33 349 329 212 177 124 168 192 210 228 240 258 266 251 226 203 224 245 285 301 257 279 306 315 329 334 334 333 330 310 303 302 307 312 312 310 306 312 338 339 334 336 342 329 332 326 321 318 312 314 321 336 328 320 336 332 34 67 55 46 30 4 12 29 21 356 341 338 336 327 322 318 320 319 318 316 316 315 316 317 318 318 317
147 148 141 181 234 236 219 196 184 84 172 222 245 264 264 265 254 252 241 191 208 225 246 263 286 287 294 302 307 288 275 286 300 299 298 293 288 292 335 358 340 329 332 335 323 319 313 317 318 314 312 318 330 321 338 323 332 322 68 73 59 50 22 0 39 30 2 343 341 338 329 321 314 314 313 314 312 312 312 313 315 313 312 313 312
173 174 171 186 204 220 232 189 168 180 204 223 244 251 251 243 251 255 238 240 218 198 247 245 238 249 250 248 258 289 326 297 257 253 257 263 283 299 308 331 354 354 323 312 316 309 309 302 310 309 313 314 312 321 312 330 307 359 84 86 75 57 65 64 55 21 333 332 349 330 323 320 317 314 311 309 309 310 309 309 308 309 310 311 310
201 206 203 195 204 189 174 174 183 201 208 221 234 233 221 233 228 222 245 242 259 272 253 250 267 272 307 333 330 309 276 269 269 277 306 313 304 304 305 317 353 342 313 307 308 306 301 303 311 313 314 313 316 306 308 294 357 84 102 99 98 80 94 92 78 44 17 3 333 326 318 313 311 310 308 307 306 306 306 307 310 309 308 306 304
193 180 165 186 181 189 183 192 202 211 213 212 209 218 228 180 218 267 213 232 258 270 293 319 324 296 257 230 224 234 246 270 321 336 332 313 315 312 309 305 306 318 323 312 304 299 299 298 300 304 302 301 292 297 293 22 88 108 119 125 111 98 71 60 59 43 16 341 322 323 318 314 310 310 309 308 309 307 307 307 305 304 304 304 303